Regional Weather Roundup
Issued by NWS

Home | Current Version | Previous Version | Graphics & Text | Print | Product List | Glossary On
Versions: 1 2 3 4 5 6 7 8 9 10 11 12 13 14 15 16 17 18 19 20 21 22 23 24 25 26 27 28 29 30 31 32 33 34 35 36 37 38 39 40 41 42 43 44 45 46 47 48 49 50
000
ASUS45 KTFX 190810
RWRMT
MONTANA REGIONAL WEATHER ROUNDUP
NATIONAL WEATHER SERVICE GREAT FALLS MT
100 AM MST THU JAN 19 2017

NOTE: "FAIR" INDICATES FEW OR NO CLOUDS BELOW 12000 FEET WITH NO
SIGNIFICANT WEATHER AND/OR OBSTRUCTIONS TO VISIBILITY.

MTZ001>007-043-190900-
WEST OF THE DIVIDE

CITY           SKY/WX    TMP DP  RH WIND       PRES   REMARKS
KALISPELL      CLOUDY    32  31  96 N3        29.49F FOG
MISSOULA       CLOUDY    30  26  85 CALM      29.54F
BUTTE          CLOUDY    20  15  81 VRB3      29.59F
MULLAN PASS    LGT SNOW  32  29  88 S9        29.46S VSB 3/4 WCI  24
ANACONDA         N/A     37  25  60 SE13      29.54F WCI  29
DEER LODGE       N/A     36  25  64 SW3       29.57S
EUREKA           N/A     34  32  93 E3        29.47S VSB 0
HAMILTON         N/A     39  27  60 S12       29.52F WCI  32
PLAINS           N/A     31  25  78 CALM      29.56F
RONAN            N/A     30  28  92 CALM      29.56F
$$

MTZ008-052>055-190900-
SOUTHWEST MONTANA

CITY           SKY/WX    TMP DP  RH WIND       PRES   REMARKS
BOZEMAN        CLOUDY    25  19  78 SE5       29.60F
DILLON         CLOUDY    36  18  48 CALM      29.61F
W YELLOWSTONE  CLOUDY    16  12  86 NE3       29.76F
ENNIS          CLOUDY    34  18  51 S21       29.69F WCI  22
TWIN BRIDGES     N/A     32  17  54 SE10      29.65F WCI  24
$$

MTZ009-010-012-014-046-048-049-054-190900-
EAST SLOPES AND CENTRAL MONTANA

CITY           SKY/WX    TMP DP  RH WIND       PRES   REMARKS
CUT BANK       MOCLDY    38  31  76 SE8       29.41R
GREAT FALLS    CLOUDY    41  25  53 S13       29.47F
MALMSTROM AFB  CLOUDY    42  27  56 SW13      29.47F
HELENA         CLOUDY    26  19  74 VRB6      29.55F WCI  19
AUGUSTA          N/A     34  26  74 S9        29.44F WCI  27
BOWMANS CRNR     N/A     33  23  66 S16       29.45F WCI  23
CHOTEAU          N/A     39  25  56 S16G24    29.46R WCI  30
CONRAD           N/A     37  31  79 SE9       29.49R WCI  30
POWER            N/A     34  27  75 S13       29.44F WCI  25
RAYNESFORD     MOCLDY    47  23  38 S16       29.48S
ULM            MOCLDY    41  27  58 MISG      29.47F
$$

MTZ011-013-016-021-045-047-050-051-190900-
NORTH CENTRAL MONTANA

CITY           SKY/WX    TMP DP  RH WIND       PRES   REMARKS
HAVRE          CLOUDY    36  31  82 SW8       29.45R WCI  30
LEWISTOWN      CLOUDY    37  27  67 SE5       29.48F
CHINOOK          N/A     34  28  80 E3        29.46R
DENTON         MOCLDY    36  29  75 SW15      29.44S WCI  27
FORT BENTON      N/A     43  27  52 MISG      29.46F
GEYSER         MOCLDY    40  29  64 SW3       29.47R
GRASS RANGE      N/A     37  28  69 S5        29.45F
JUDITH GAP       N/A     32  25  73 S17       29.51S WCI  21
ROY              N/A     39  28  64 MISG      29.47F
STANFORD       MOCLDY    44  28  52 SW25      29.46F
WINIFRED         N/A     42  27  54 SW5       29.45F
$$

MTZ017>020-022>027-061-062-190900-
NORTHEAST MONTANA

CITY           SKY/WX    TMP DP  RH WIND       PRES   REMARKS
GLASGOW        CLOUDY    26  21  81 SE7       29.48F WCI  18
JORDAN           N/A     22  19  89 CALM      29.49F
SIDNEY         CLOUDY    23  19  85 S8        29.52F WCI  14
WOLF POINT     CLOUDY    16  12  84 CALM      29.52F
PLENTYWOOD       N/A     28  23  80 E8        29.48F WCI  20
POPLAR           N/A     25  21  86 CALM      29.52S
SCOBEY           N/A     25  16  68 CALM      29.49F
$$

MTZ028>42-056>058-190900-
SOUTHCENTRAL AND SOUTHEAST MONTANA

CITY           SKY/WX    TMP DP  RH WIND       PRES   REMARKS
BAKER          CLOUDY    20  14  77 CALM      29.55F
BILLINGS       CLOUDY    35  19  52 SW17      29.54F WCI  25
LIVINGSTON     CLOUDY    44  16  32 SW18G32   29.58F
MILES CITY     CLOUDY    25  18  74 S9        29.54F WCI  15
BIG TIMBER     CLEAR     43  19  39 W26       29.57S
EKALAKA          N/A     40  17  39 SE5       29.57F
FORSYTH          N/A     25  19  80 N6        29.53F WCI  18
HARLOWTON      MOCLDY    33  22  64 NW5       29.52S
LAUREL           N/A     36  18  48 S9        29.57F WCI  29
$$

REGIONAL REPORTS...DAKOTAS

CITY           SKY/WX    TMP DP  RH WIND       PRES   REMARKS
WILLISTON      CLOUDY    23  20  88 SW6       29.52F WCI  16
MINOT          CLOUDY    31  24  75 S8        29.51R WCI  23
DICKINSON      CLOUDY    26  18  71 W12       29.51S WCI  16
BEACH            N/A     25  19  80 SE3       29.56F
CROSBY           N/A     27  25  93 SW18      29.49F WCI  13
TIOGA            N/A     28  27  93 W6        29.52F WCI  22
WATFORD CITY     N/A     23  19  86 CALM      29.52F
BISMARCK       CLOUDY    14   8  77 E6        29.59R WCI   5
GRAND FORKS    CLOUDY    26  19  74 S14       29.60S WCI  14
FARGO          CLOUDY    29  24  82 S12       29.64S WCI  19
BUFFALO SD       N/A     31  19  61 CALM      29.48S
RAPID CITY     CLOUDY    34  23  64 W7        29.56S WCI  28
$$

REGIONAL REPORTS...WYOMING/IDAHO/WASHINGTON

CITY           SKY/WX    TMP DP  RH WIND       PRES   REMARKS
GILLETTE       CLOUDY    34  20  56 SW17      29.58F WCI  23
SHERIDAN       CLOUDY    16  13  88 CALM      29.56F
BUFFALO WY     CLOUDY    37  18  46 CALM      29.59F
CODY           CLOUDY    21  13  71 SE7       29.61F WCI  12
YELLOWSTONE LA   N/A     13  11  92 VRB6      29.75F WCI   4
IDAHO FALLS    LGT SNOW  20  18  92 N7        29.81F FOG     WCI  11
SALMON         CLOUDY    18  12  79 CALM      29.69F
BOISE          CLOUDY    37  34  89 SE12      29.64F WCI  29
SPOKANE        LGT RAIN  36  34  92 SE13      29.47F WCI  27
$$

REGIONAL REPORTS...ALBERTA

CITY           SKY/WX    TMP DP  RH WIND       PRES   REMARKS
EDMONTON       CLEAR     36  21  55 W6        29.18R WCI  31
CALGARY        MOCLDY    37  27  65 SE9       29.27F WCI  31
LETHBRIDGE     CLOUDY    36  32  87 S8        29.35S WCI  29
MEDICINE HAT   MOCLDY    39  34  81 SW12      29.37F WCI  32
WATERTON GATE    N/A     41  32  70 SW7         N/A
CARDSTON         N/A     45  32  61 W8          N/A
MILK RIVER       N/A     39  34  81 S15         N/A  WCI  31
$$

REGIONAL REPORTS...SASKATCHEWAN

CITY           SKY/WX    TMP DP  RH WIND       PRES   REMARKS
SWIFT CURRENT  PTCLDY    39  32  75 SW18      29.35S WCI  30
REGINA         CLEAR     32  28  86 SW12      29.41S WCI  23
SASKATOON      MOCLDY    34  30  86 SW8       29.30F WCI  27
CYPRESS HILLS    N/A     37  30  75 S6          N/A
VAL MARIE        N/A     27  23  86 SW8         N/A  WCI  18
$$



USA.gov is the U.S. government's official web portal to all federal, state and local government web resources and services.